• In Österreich
  • Länderverzeichnis
  • Für 7 Tage
  • Wassertemperatur
  • Satellitenkarten
  • Wetterkarte
  • News
  • Widgets
  • user-avatar
    Anmelden

    Stündliche Wetter Sungurlu

    Heute, 27 Mai, Sonntag

    Zeit Temperatur Niederschläge Wind Luftdruck Luftfeuchtigkeit
    00:00 +17°C° 0 mm 2 m/S 694 mmHg 84%
    01:00 +16°C° 0 mm 2 m/S 694 mmHg 86%
    02:00 +16°C° 0 mm 2 m/S 694 mmHg 88%
    03:00 +16°C° 0 mm 1 m/S 694 mmHg 89%
    04:00 +16°C° 0 mm 1 m/S 694 mmHg 90%
    05:00 +16°C° 0 mm 1 m/S 694 mmHg 91%
    06:00 +17°C° 0 mm 2 m/S 694 mmHg 84%
    07:00 +19°C° 0 mm 2 m/S 695 mmHg 77%
    08:00 +20°C° 0 mm 2 m/S 695 mmHg 70%
    09:00 +23°C° 0 mm 2 m/S 695 mmHg 61%
    10:00 +24°C° 0 mm 2 m/S 695 mmHg 53%
    11:00 +26°C° 0 mm 2 m/S 695 mmHg 45%
    12:00 +27°C° 0 mm 2 m/S 695 mmHg 40%
    13:00 +28°C° 0 mm 2 m/S 695 mmHg 36%
    14:00 +29°C° 0 mm 1 m/S 695 mmHg 31%
    15:00 +29°C° 0 mm 1 m/S 695 mmHg 31%
    16:00 +29°C° 0 mm 1 m/S 695 mmHg 32%
    17:00 +29°C° 0 mm 1 m/S 695 mmHg 32%
    18:00 +27°C° 0 mm 2 m/S 695 mmHg 40%
    19:00 +24°C° 0 mm 2 m/S 695 mmHg 48%
    20:00 +21°C° 0 mm 3 m/S 695 mmHg 56%
    21:00 +20°C° 0 mm 3 m/S 695 mmHg 63%
    22:00 +20°C° 0 mm 2 m/S 695 mmHg 70%
    23:00 +19°C° 0 mm 2 m/S 695 mmHg 77%

    Morgen, 28 Mai, Montag

    Zeit Temperatur Niederschläge Wind Luftdruck Luftfeuchtigkeit
    00:00 +18°C° 0 mm 2 m/S 695 mmHg 80%
    01:00 +18°C° 0 mm 2 m/S 695 mmHg 84%
    02:00 +17°C° 0 mm 2 m/S 695 mmHg 87%
    03:00 +17°C° 0 mm 2 m/S 695 mmHg 89%
    04:00 +17°C° 0 mm 2 m/S 695 mmHg 90%
    05:00 +17°C° 0 mm 2 m/S 695 mmHg 91%
    06:00 +18°C° 0 mm 2 m/S 695 mmHg 83%
    07:00 +20°C° 0 mm 2 m/S 695 mmHg 74%
    08:00 +23°C° 0 mm 2 m/S 696 mmHg 66%
    09:00 +24°C° 0 mm 2 m/S 696 mmHg 58%
    10:00 +26°C° 0 mm 2 m/S 696 mmHg 51%
    11:00 +28°C° 0 mm 2 m/S 696 mmHg 43%
    12:00 +28°C° 0,2 mm 2 m/S 695 mmHg 41%
    13:00 +29°C° 0,2 mm 3 m/S 695 mmHg 38%
    14:00 +30°C° 0,2 mm 3 m/S 695 mmHg 36%
    15:00 +28°C° 1 mm 4 m/S 695 mmHg 43%
    16:00 +27°C° 1 mm 5 m/S 694 mmHg 49%
    17:00 +26°C° 1 mm 6 m/S 694 mmHg 56%
    18:00 +23°C° 0,6 mm 5 m/S 694 mmHg 63%
    19:00 +21°C° 0,6 mm 4 m/S 694 mmHg 71%
    20:00 +20°C° 0,6 mm 4 m/S 694 mmHg 78%
    21:00 +19°C° 0 mm 3 m/S 695 mmHg 80%
    22:00 +19°C° 0 mm 3 m/S 695 mmHg 83%
    23:00 +18°C° 0 mm 3 m/S 695 mmHg 86%

    übermorgen, 29 Mai, Dienstag

    Zeit Temperatur Niederschläge Wind Luftdruck Luftfeuchtigkeit
    00:00 +18°C° 0,1 mm 3 m/S 694 mmHg 88%
    01:00 +17°C° 0,1 mm 2 m/S 694 mmHg 90%
    02:00 +17°C° 0,1 mm 2 m/S 694 mmHg 92%
    03:00 +17°C° 0 mm 2 m/S 694 mmHg 92%
    04:00 +17°C° 0 mm 2 m/S 694 mmHg 92%
    05:00 +17°C° 0 mm 2 m/S 694 mmHg 91%
    06:00 +18°C° 0 mm 3 m/S 694 mmHg 86%
    07:00 +19°C° 0 mm 3 m/S 694 mmHg 80%
    08:00 +20°C° 0 mm 4 m/S 694 mmHg 74%
    09:00 +21°C° 0,1 mm 4 m/S 694 mmHg 69%
    10:00 +22°C° 0,1 mm 4 m/S 694 mmHg 64%
    11:00 +23°C° 0,1 mm 4 m/S 694 mmHg 59%
    12:00 +25°C° 0,4 mm 4 m/S 693 mmHg 57%
    13:00 +25°C° 0,4 mm 4 m/S 693 mmHg 55%
    14:00 +26°C° 0,4 mm 4 m/S 693 mmHg 53%
    15:00 +25°C° 1,2 mm 4 m/S 693 mmHg 56%
    16:00 +25°C° 1,2 mm 4 m/S 692 mmHg 58%
    17:00 +24°C° 1,2 mm 3 m/S 692 mmHg 61%
    18:00 +22°C° 0,4 mm 3 m/S 692 mmHg 65%
    19:00 +21°C° 0,4 mm 3 m/S 692 mmHg 70%
    20:00 +20°C° 0,4 mm 2 m/S 692 mmHg 74%
    21:00 +19°C° 0,2 mm 2 m/S 692 mmHg 77%
    22:00 +19°C° 0,2 mm 2 m/S 692 mmHg 80%
    23:00 +18°C° 0,2 mm 2 m/S 692 mmHg 82%

    30 Mai, Mittwoch

    Zeit Temperatur Niederschläge Wind Luftdruck Luftfeuchtigkeit
    00:00 +18°C° 0,2 mm 2 m/S 692 mmHg 84%
    01:00 +17°C° 0,2 mm 2 m/S 691 mmHg 85%
    02:00 +16°C° 0,2 mm 1 m/S 691 mmHg 87%
    03:00 +16°C° 0,1 mm 1 m/S 691 mmHg 87%
    04:00 +16°C° 0,1 mm 1 m/S 691 mmHg 88%
    05:00 +16°C° 0,1 mm 1 m/S 691 mmHg 88%
    06:00 +19°C° 0,2 mm 1 m/S 692 mmHg 80%
    07:00 +20°C° 0,2 mm 1 m/S 692 mmHg 73%
    08:00 +21°C° 0,2 mm 2 m/S 692 mmHg 66%
    09:00 +23°C° 0,3 mm 1 m/S 692 mmHg 60%
    10:00 +24°C° 0,3 mm 1 m/S 692 mmHg 55%
    11:00 +26°C° 0,3 mm 1 m/S 692 mmHg 50%
    12:00 +26°C° 0,1 mm 1 m/S 692 mmHg 47%
    13:00 +27°C° 0,1 mm 1 m/S 692 mmHg 44%
    14:00 +26°C° 0,1 mm 0 m/S 692 mmHg 41%
    15:00 +27°C° 0 mm 1 m/S 692 mmHg 43%
    16:00 +27°C° 0 mm 1 m/S 692 mmHg 45%
    17:00 +27°C° 0 mm 2 m/S 692 mmHg 47%
    18:00 +25°C° 0,7 mm 2 m/S 692 mmHg 54%
    19:00 +23°C° 0,7 mm 2 m/S 692 mmHg 61%
    20:00 +21°C° 0,7 mm 2 m/S 692 mmHg 69%
    21:00 +20°C° 1,3 mm 2 m/S 692 mmHg 72%
    22:00 +20°C° 1,3 mm 2 m/S 691 mmHg 76%
    23:00 +20°C° 1,3 mm 1 m/S 691 mmHg 79%

    31 Mai, Donnerstag

    Zeit Temperatur Niederschläge Wind Luftdruck Luftfeuchtigkeit
    00:00 +20°C° 0,5 mm 1 m/S 691 mmHg 81%
    01:00 +19°C° 0,5 mm 1 m/S 691 mmHg 82%
    02:00 +19°C° 0,5 mm 1 m/S 691 mmHg 84%
    03:00 +19°C° 0,5 mm 1 m/S 691 mmHg 85%
    04:00 +19°C° 0,5 mm 1 m/S 691 mmHg 85%
    05:00 +18°C° 0,5 mm 1 m/S 691 mmHg 86%
    06:00 +20°C° 0,7 mm 1 m/S 691 mmHg 80%
    07:00 +21°C° 0,7 mm 1 m/S 692 mmHg 74%
    08:00 +22°C° 0,7 mm 1 m/S 692 mmHg 67%
    09:00 +23°C° 1,1 mm 1 m/S 692 mmHg 62%
    10:00 +24°C° 1,1 mm 1 m/S 692 mmHg 57%
    11:00 +25°C° 1,1 mm 1 m/S 691 mmHg 52%
    12:00 +26°C° 0,7 mm 1 m/S 691 mmHg 50%
    13:00 +26°C° 0,7 mm 1 m/S 691 mmHg 49%
    14:00 +26°C° 0,7 mm 1 m/S 691 mmHg 48%
    15:00 +26°C° 0,8 mm 2 m/S 691 mmHg 50%
    16:00 +26°C° 0,8 mm 2 m/S 691 mmHg 52%
    17:00 +25°C° 0,8 mm 2 m/S 691 mmHg 54%
    18:00 +24°C° 0,6 mm 2 m/S 691 mmHg 60%
    19:00 +21°C° 0,6 mm 2 m/S 691 mmHg 67%
    20:00 +20°C° 0,6 mm 2 m/S 691 mmHg 73%
    21:00 +19°C° 0,5 mm 2 m/S 692 mmHg 76%
    22:00 +18°C° 0,5 mm 2 m/S 692 mmHg 80%
    23:00 +18°C° 0,5 mm 2 m/S 692 mmHg 84%

    1 Juni, Freitag

    Zeit Temperatur Niederschläge Wind Luftdruck Luftfeuchtigkeit
    00:00 +18°C° 0,5 mm 1 m/S 692 mmHg 85%
    01:00 +18°C° 0,5 mm 1 m/S 692 mmHg 87%
    02:00 +16°C° 0,5 mm 1 m/S 692 mmHg 89%
    03:00 +16°C° 0,2 mm 1 m/S 692 mmHg 89%
    04:00 +16°C° 0,2 mm 1 m/S 692 mmHg 89%
    05:00 +16°C° 0,2 mm 1 m/S 692 mmHg 89%
    06:00 +18°C° 0 mm 1 m/S 692 mmHg 85%
    07:00 +19°C° 0 mm 1 m/S 693 mmHg 80%
    08:00 +20°C° 0 mm 1 m/S 693 mmHg 75%
    09:00 +21°C° 0,1 mm 1 m/S 693 mmHg 70%
    10:00 +22°C° 0,1 mm 1 m/S 693 mmHg 65%
    11:00 +23°C° 0,1 mm 1 m/S 693 mmHg 59%
    12:00 +24°C° 0,1 mm 1 m/S 693 mmHg 54%
    13:00 +25°C° 0,1 mm 2 m/S 693 mmHg 49%
    14:00 +26°C° 0,1 mm 2 m/S 692 mmHg 44%
    15:00 +26°C° 0,1 mm 2 m/S 692 mmHg 44%
    16:00 +26°C° 0,1 mm 2 m/S 692 mmHg 44%
    17:00 +26°C° 0,1 mm 2 m/S 692 mmHg 44%
    18:00 +24°C° 0 mm 2 m/S 692 mmHg 52%
    19:00 +21°C° 0 mm 3 m/S 692 mmHg 61%
    20:00 +19°C° 0 mm 3 m/S 693 mmHg 70%
    21:00 +19°C° 0 mm 3 m/S 693 mmHg 75%
    22:00 +18°C° 0 mm 2 m/S 692 mmHg 80%
    23:00 +17°C° 0 mm 2 m/S 692 mmHg 85%
    Mehr zeigen